| time (UTC) | temp F | wind direction | speed MPH | gust MPH | rain 1hr in | rain 24hr in | rain mn in | humidity % | barometer mb |
| 20260504201518 | 54 | 306 | 0.0 | 7.0 | 0.00 | 0.03 | 0.03 | 75 | 1004.8 |
| 20260504200024 | 54 | 313 | 1.0 | 8.0 | 0.00 | 0.03 | 0.03 | 76 | 1004.8 |
| 20260504194527 | 55 | 279 | 2.0 | 12.0 | 0.00 | 0.04 | 0.03 | 74 | 1004.7 |
| 20260504193003 | 54 | 284 | 5.0 | 12.0 | 0.00 | 0.04 | 0.03 | 76 | 1004.8 |
| 20260504191505 | 53 | 290 | 2.0 | 11.0 | 0.00 | 0.05 | 0.03 | 81 | 1004.7 |
| 20260504190011 | 51 | 287 | 2.0 | 9.0 | 0.01 | 0.05 | 0.03 | 85 | 1004.9 |
| 20260504184522 | 51 | 248 | 1.0 | 8.0 | 0.03 | 0.06 | 0.03 | 89 | 1005.1 |
| 20260504183010 | 50 | 277 | 0.0 | 7.0 | 0.03 | 0.07 | 0.03 | 88 | 1005.0 |
| 20260504181511 | 49 | 304 | 1.0 | 7.0 | 0.03 | 0.08 | 0.03 | 89 | 1005.3 |
| 20260504180010 | 50 | 298 | 5.0 | 15.0 | 0.02 | 0.09 | 0.02 | 83 | 1005.4 |
| 20260504174512 | 54 | 287 | 9.0 | 23.0 | 0.00 | 0.08 | 0.00 | 69 | 1005.2 |
| 20260504173008 | 55 | 300 | 7.0 | 16.0 | 0.00 | 0.11 | 0.00 | 60 | 1004.2 |
| 20260504171512 | 58 | 266 | 4.0 | 15.0 | 0.00 | 0.12 | 0.00 | 48 | 1004.0 |
| 20260504081525 | 37 | 248 | 1.0 | 10.0 | 0.00 | 0.55 | 0.00 | 88 | 1004.3 |
| 20260504044536 | 42 | 300 | 4.0 | 12.0 | 0.00 | 0.61 | 0.00 | 92 | 1002.9 |
| 20260504043039 | 42 | 324 | 5.0 | 16.0 | 0.00 | 0.61 | 0.00 | 91 | 1002.8 |
| 20260504041530 | 42 | 327 | 7.0 | 14.0 | 0.00 | 0.61 | 0.00 | 92 | 1002.5 |
| 20260504040013 | 42 | 299 | 2.0 | 11.0 | 0.00 | 0.61 | 0.00 | 93 | 1002.5 |
| 20260504034504 | 42 | 325 | 5.0 | 14.0 | 0.00 | 0.61 | 0.61 | 93 | 1002.3 |
| 20260504033012 | 42 | 321 | 4.0 | 11.0 | 0.00 | 0.61 | 0.61 | 93 | 1002.1 |
| 20260504031519 | 42 | 309 | 5.0 | 12.0 | 0.00 | 0.61 | 0.61 | 94 | 1002.0 |
| 20260504030020 | 42 | 319 | 5.0 | 11.0 | 0.00 | 0.61 | 0.61 | 94 | 1001.8 |
| 20260504024503 | 42 | 321 | 4.0 | 12.0 | 0.00 | 0.61 | 0.61 | 94 | 1001.7 |
| 20260504023008 | 42 | 300 | 3.0 | 10.0 | 0.00 | 0.61 | 0.61 | 94 | 1001.7 |
| 20260504021515 | 42 | 331 | 5.0 | 13.0 | 0.00 | 0.61 | 0.61 | 94 | 1001.6 |
| 20260504020019 | 42 | 288 | 6.0 | 14.0 | 0.00 | 0.61 | 0.61 | 93 | 1001.7 |
| 20260504014533 | 42 | 331 | 7.0 | 13.0 | 0.00 | 0.61 | 0.61 | 93 | 1001.6 |
| 20260504013008 | 42 | 319 | 8.0 | 15.0 | 0.00 | 0.61 | 0.61 | 94 | 1001.5 |
| 20260504011510 | 42 | 339 | 8.0 | 15.0 | 0.00 | 0.61 | 0.61 | 94 | 1001.6 |
| 20260504010015 | 42 | 317 | 5.0 | 19.0 | 0.00 | 0.61 | 0.61 | 94 | 1001.2 |
| 20260504004520 | 42 | 335 | 5.0 | 15.0 | 0.00 | 0.61 | 0.61 | 94 | 1001.1 |
| 20260504003021 | 42 | 313 | 7.0 | 13.0 | 0.00 | 0.61 | 0.61 | 94 | 1000.8 |
| 20260504001525 | 42 | 319 | 6.0 | 16.0 | 0.00 | 0.61 | 0.61 | 95 | 1000.7 |
| 20260504000029 | 42 | 323 | 8.0 | 14.0 | 0.00 | 0.61 | 0.61 | 95 | 1000.4 |
| 20260503234529 | 42 | 331 | 4.0 | 15.0 | 0.00 | 0.61 | 0.61 | 95 | 1000.3 |
| 20260503233021 | 41 | 311 | 4.0 | 13.0 | 0.00 | 0.61 | 0.61 | 95 | 1000.3 |
| 20260503231524 | 41 | 349 | 5.0 | 14.0 | 0.00 | 0.61 | 0.61 | 94 | 1000.2 |
| 20260503230028 | 41 | 9 | 6.0 | 15.0 | 0.00 | 0.61 | 0.61 | 95 | 1000.1 |
| 20260503224529 | 41 | 346 | 5.0 | 19.0 | 0.00 | 0.61 | 0.61 | 94 | 1000.1 |
| 20260503223028 | 41 | 352 | 10.0 | 17.0 | 0.00 | 0.61 | 0.61 | 94 | 1000.0 |
| 20260503221525 | 41 | 360 | 8.0 | 19.0 | 0.00 | 0.61 | 0.61 | 94 | 1000.0 |
| 20260503220024 | 41 | 342 | 11.0 | 19.0 | 0.00 | 0.61 | 0.61 | 94 | 1000.0 |
| 20260503214539 | 41 | 5 | 11.0 | 19.0 | 0.00 | 0.61 | 0.61 | 94 | 999.9 |
| 20260503213017 | 42 | 327 | 8.0 | 16.0 | 0.00 | 0.61 | 0.61 | 94 | 1000.0 |
| 20260503211520 | 42 | 351 | 9.0 | 16.0 | 0.00 | 0.61 | 0.61 | 94 | 1000.1 |
| 20260503210022 | 42 | 351 | 8.0 | 16.0 | 0.00 | 0.61 | 0.61 | 94 | 1000.1 |
| 20260503204533 | 42 | 5 | 11.0 | 18.0 | 0.01 | 0.61 | 0.61 | 94 | 1000.2 |
| 20260503203026 | 42 | 331 | 11.0 | 19.0 | 0.01 | 0.61 | 0.61 | 93 | 1000.3 |